This is the latest recevied weather packets stored in our database for station/object YC0ACE-13. If no packets are shown the sender has not sent any weather packets the latest 10 day(s).
| Time | Temp. | Humidity | Pressure | Rain* | Wind** | Luminosity | Snow |
|---|---|---|---|---|---|---|---|
| 1777779325 | 32.78° C | 61% | 1015.6 hPa | 0 mm | - | 645 W/m² | - |
| 1777779024 | 32.22° C | 63% | 1015.6 hPa | 0 mm | - | 736 W/m² | - |
| 1777778724 | 32.22° C | 64% | 1015.6 hPa | 0 mm | - | 270 W/m² | - |
| 1777778425 | 31.67° C | 64% | 1015.6 hPa | 0 mm | - | 692 W/m² | - |
| 1777778125 | 31.67° C | 64% | 1015.9 hPa | 0 mm | - | 271 W/m² | - |
| 1777777825 | 32.22° C | 64% | 1015.9 hPa | 0 mm | - | 688 W/m² | - |
| 1777777524 | 31.67° C | 65% | 1015.9 hPa | 0 mm | - | 655 W/m² | - |
| 1777777224 | 31.67° C | 65% | 1015.6 hPa | 0 mm | - | 631 W/m² | - |
| 1777776924 | 31.67° C | 67% | 1015.6 hPa | 0 mm | - | 656 W/m² | - |
| 1777776624 | 31.67° C | 66% | 1015.9 hPa | 0 mm | - | 588 W/m² | - |
| 1777776325 | 31.11° C | 67% | 1015.9 hPa | 0 mm | - | 572 W/m² | - |
| 1777776026 | 31.11° C | 67% | 1015.9 hPa | 0 mm | - | 576 W/m² | - |
| 1777775724 | 31.11° C | 68% | 1015.9 hPa | 0 mm | - | 566 W/m² | - |
| 1777775425 | 31.11° C | 68% | 1015.9 hPa | 0 mm | - | 541 W/m² | - |
| 1777775124 | 31.11° C | 68% | 1015.6 hPa | 0 mm | - | 555 W/m² | - |
| 1777774824 | 31.11° C | 68% | 1015.6 hPa | 0 mm | - | 538 W/m² | - |
| 1777774524 | 30.56° C | 69% | 1015.9 hPa | 0 mm | - | 513 W/m² | - |
| 1777774224 | 30.56° C | 70% | 1015.6 hPa | 0 mm | - | 497 W/m² | - |
| 1777773925 | 30.56° C | 71% | 1015.9 hPa | 0 mm | - | 488 W/m² | - |
| 1777773625 | 30.56° C | 71% | 1015.6 hPa | 0 mm | - | 466 W/m² | - |
| 1777773324 | 30° C | 72% | 1015.6 hPa | 0 mm | - | 436 W/m² | - |
| 1777773025 | 30° C | 73% | 1015.6 hPa | 0 mm | - | 422 W/m² | - |
| 1777772724 | 30° C | 74% | 1015.6 hPa | 0 mm | - | 404 W/m² | - |
| 1777772425 | 30° C | 74% | 1015.6 hPa | 0 mm | - | 383 W/m² | - |
| 1777772124 | 30° C | 73% | 1015.6 hPa | 0 mm | - | 378 W/m² | - |
* Rain latest hour (hover to see other rain measurements)
** Current wind speed in m/s (hover to see current wind gust speed)